Location: Holbach
(51.5399°N, 10.6036°E)
Time: 02:51:12
(UTC+00:00)

MOS 1 Rocket - Pass Details

Date: 18 September 2020
Orbit: 614 x 831 km, 97.4° (Epoch: 22 October)

Event Time Altitude Azimuth Distance (km) Brightness Sun altitude
Rises 18:55:52 0° 11° (N) 3,056 6.8 -14.7°
Reaches altitude 10° 18:58:11 10° 8° (N) 2,105 6.0 -15.0°
Maximum altitude 19:02:42 65° 288° (WNW) 711 3.6 -15.7°
Drops below altitude 10° 19:07:00 10° 207° (SSW) 1,997 5.7 -16.3°
Sets 19:09:09 0° 204° (SSW) 2,886 6.5 -16.6°
